When you browse on this site, cookies collect data to enhance your experience and personalize the content and advertising you see.
Visit our Privacy Policy to learn more. By continuing to use the site, you agree to this use of cookies and data.
  • în România
  • Lista ţărilor
  • Pe 7 zile
  • Temperatura apei
  • Hartă satelitară
  • Meteo pe hartă
  • Widget-uri
  • user-avatar
    Intrare

    Meteo pe oră la Ondjiwa

    Astăzi, 18 Ianuarie, Vineri

    Timp Temperatura Precipitaţii Vânt Presiune Umiditate
    00:00 +26°C° 1.4 mm 2 m/s 665 mmHg 60%
    01:00 +24°C° 0 mm 2 m/s 665 mmHg 63%
    02:00 +24°C° 0.1 mm 2 m/s 665 mmHg 63%
    03:00 +24°C° 0.1 mm 2 m/s 665 mmHg 62%
    04:00 +23°C° 0.1 mm 1 m/s 665 mmHg 61%
    05:00 +24°C° 0 mm 2 m/s 666 mmHg 63%
    06:00 +24°C° 0 mm 2 m/s 666 mmHg 65%
    07:00 +25°C° 0 mm 2 m/s 667 mmHg 67%
    08:00 +27°C° 0 mm 2 m/s 667 mmHg 61%
    09:00 +29°C° 0 mm 2 m/s 667 mmHg 54%
    10:00 +31°C° 0 mm 3 m/s 668 mmHg 47%
    11:00 +33°C° 0 mm 3 m/s 667 mmHg 44%
    12:00 +34°C° 0 mm 2 m/s 667 mmHg 40%
    13:00 +35°C° 0 mm 2 m/s 667 mmHg 36%
    14:00 +35°C° 0 mm 2 m/s 666 mmHg 35%
    15:00 +35°C° 0 mm 2 m/s 666 mmHg 34%
    16:00 +36°C° 0 mm 2 m/s 665 mmHg 33%
    17:00 +34°C° 0 mm 2 m/s 665 mmHg 36%
    18:00 +32°C° 0 mm 2 m/s 665 mmHg 39%
    19:00 +30°C° 0 mm 2 m/s 665 mmHg 42%
    20:00 +30°C° 0 mm 1 m/s 665 mmHg 44%
    21:00 +29°C° 0 mm 1 m/s 665 mmHg 45%
    22:00 +27°C° 0 mm 0 m/s 666 mmHg 47%
    23:00 +28°C° 0 mm 1 m/s 666 mmHg 47%

    Mâine, 19 Ianuarie, Sâmbătă

    Timp Temperatura Precipitaţii Vânt Presiune Umiditate
    00:00 +28°C° 0 mm 2 m/s 666 mmHg 47%
    01:00 +28°C° 0 mm 3 m/s 666 mmHg 47%
    02:00 +27°C° 0 mm 2 m/s 666 mmHg 48%
    03:00 +26°C° 0 mm 2 m/s 665 mmHg 50%
    04:00 +25°C° 0 mm 2 m/s 665 mmHg 52%
    05:00 +25°C° 0 mm 2 m/s 666 mmHg 53%
    06:00 +25°C° 0 mm 3 m/s 666 mmHg 53%
    07:00 +23°C° 0 mm 4 m/s 666 mmHg 54%
    08:00 +27°C° 0 mm 3 m/s 667 mmHg 49%
    09:00 +29°C° 0 mm 3 m/s 668 mmHg 43%
    10:00 +31°C° 0 mm 2 m/s 668 mmHg 37%
    11:00 +34°C° 0 mm 2 m/s 668 mmHg 34%
    12:00 +36°C° 0 mm 2 m/s 668 mmHg 31%
    13:00 +37°C° 0 mm 2 m/s 667 mmHg 28%
    14:00 +37°C° 0 mm 2 m/s 667 mmHg 27%
    15:00 +37°C° 0 mm 2 m/s 666 mmHg 27%
    16:00 +36°C° 0 mm 1 m/s 666 mmHg 27%
    17:00 +35°C° 0 mm 3 m/s 665 mmHg 33%
    18:00 +33°C° 0 mm 4 m/s 665 mmHg 39%
    19:00 +30°C° 0 mm 5 m/s 665 mmHg 45%
    20:00 +29°C° 0.6 mm 4 m/s 666 mmHg 49%
    21:00 +27°C° 0.6 mm 2 m/s 666 mmHg 54%
    22:00 +26°C° 0.6 mm 1 m/s 667 mmHg 58%
    23:00 +26°C° 0.3 mm 2 m/s 667 mmHg 61%

    Poimâine, 20 Ianuarie, Duminică

    Timp Temperatura Precipitaţii Vânt Presiune Umiditate
    00:00 +25°C° 0.3 mm 2 m/s 666 mmHg 65%
    01:00 +25°C° 0.3 mm 3 m/s 666 mmHg 68%
    02:00 +24°C° 0.8 mm 2 m/s 666 mmHg 69%
    03:00 +24°C° 0.8 mm 2 m/s 666 mmHg 70%
    04:00 +24°C° 0.8 mm 1 m/s 666 mmHg 71%
    05:00 +24°C° 0.7 mm 1 m/s 667 mmHg 71%
    06:00 +24°C° 0.7 mm 1 m/s 667 mmHg 70%
    07:00 +24°C° 0.7 mm 1 m/s 668 mmHg 70%
    08:00 +26°C° 0.4 mm 1 m/s 668 mmHg 63%
    09:00 +28°C° 0.4 mm 2 m/s 669 mmHg 55%
    10:00 +30°C° 0.4 mm 2 m/s 669 mmHg 48%
    11:00 +31°C° 0 mm 2 m/s 669 mmHg 43%
    12:00 +34°C° 0 mm 3 m/s 668 mmHg 38%
    13:00 +35°C° 0 mm 3 m/s 668 mmHg 34%
    14:00 +35°C° 0 mm 3 m/s 667 mmHg 36%
    15:00 +34°C° 0 mm 3 m/s 667 mmHg 38%
    16:00 +33°C° 0 mm 3 m/s 666 mmHg 40%
    17:00 +31°C° 0 mm 3 m/s 666 mmHg 43%
    18:00 +30°C° 0 mm 2 m/s 666 mmHg 47%
    19:00 +29°C° 0 mm 1 m/s 666 mmHg 51%
    20:00 +28°C° 0.1 mm 2 m/s 667 mmHg 54%
    21:00 +28°C° 0.1 mm 2 m/s 667 mmHg 57%
    22:00 +27°C° 0.1 mm 2 m/s 667 mmHg 60%
    23:00 +27°C° 0 mm 2 m/s 667 mmHg 60%

    21 Ianuarie, Luni

    Timp Temperatura Precipitaţii Vânt Presiune Umiditate
    00:00 +27°C° 0 mm 1 m/s 667 mmHg 59%
    01:00 +26°C° 0 mm 1 m/s 667 mmHg 59%
    02:00 +25°C° 1.3 mm 1 m/s 667 mmHg 66%
    03:00 +24°C° 1.3 mm 1 m/s 667 mmHg 73%
    04:00 +21°C° 1.3 mm 0 m/s 667 mmHg 79%
    05:00 +22°C° 0.1 mm 0 m/s 667 mmHg 78%
    06:00 +24°C° 0.1 mm 1 m/s 668 mmHg 77%
    07:00 +24°C° 0.1 mm 1 m/s 669 mmHg 76%
    08:00 +26°C° 0 mm 1 m/s 669 mmHg 69%
    09:00 +28°C° 0 mm 2 m/s 670 mmHg 61%
    10:00 +30°C° 0 mm 2 m/s 670 mmHg 54%
    11:00 +31°C° 0 mm 3 m/s 670 mmHg 47%
    12:00 +34°C° 0 mm 3 m/s 669 mmHg 41%
    13:00 +35°C° 0 mm 4 m/s 669 mmHg 34%
    14:00 +35°C° 0 mm 4 m/s 668 mmHg 33%
    15:00 +36°C° 0 mm 4 m/s 668 mmHg 32%
    16:00 +36°C° 0 mm 5 m/s 667 mmHg 31%
    17:00 +34°C° 0 mm 4 m/s 667 mmHg 37%
    18:00 +31°C° 0 mm 3 m/s 667 mmHg 43%
    19:00 +29°C° 0 mm 3 m/s 667 mmHg 49%
    20:00 +29°C° 0 mm 2 m/s 667 mmHg 51%
    21:00 +28°C° 0 mm 2 m/s 667 mmHg 54%
    22:00 +27°C° 0 mm 1 m/s 667 mmHg 56%
    23:00 +27°C° 0 mm 1 m/s 667 mmHg 57%

    22 Ianuarie, Marţi

    Timp Temperatura Precipitaţii Vânt Presiune Umiditate
    00:00 +26°C° 0 mm 1 m/s 667 mmHg 58%
    01:00 +26°C° 0 mm 1 m/s 667 mmHg 59%
    02:00 +25°C° 0 mm 1 m/s 667 mmHg 62%
    03:00 +25°C° 0 mm 1 m/s 667 mmHg 64%
    04:00 +24°C° 0 mm 1 m/s 666 mmHg 67%
    05:00 +24°C° 0.5 mm 1 m/s 667 mmHg 68%
    06:00 +25°C° 0.5 mm 1 m/s 668 mmHg 69%
    07:00 +25°C° 0.5 mm 1 m/s 668 mmHg 70%
    08:00 +27°C° 0 mm 1 m/s 669 mmHg 62%
    09:00 +29°C° 0 mm 2 m/s 669 mmHg 54%
    10:00 +31°C° 0 mm 2 m/s 670 mmHg 46%
    11:00 +31°C° 0 mm 2 m/s 669 mmHg 43%
    12:00 +32°C° 0 mm 2 m/s 668 mmHg 40%
    13:00 +33°C° 0 mm 3 m/s 668 mmHg 38%
    14:00 +32°C° 0 mm 2 m/s 667 mmHg 37%
    15:00 +32°C° 0 mm 2 m/s 667 mmHg 36%
    16:00 +32°C° 0 mm 2 m/s 666 mmHg 36%
    17:00 +31°C° 0 mm 2 m/s 666 mmHg 38%
    18:00 +30°C° 0 mm 1 m/s 666 mmHg 39%
    19:00 +29°C° 0 mm 1 m/s 666 mmHg 41%
    20:00 +28°C° 0 mm 2 m/s 666 mmHg 44%
    21:00 +27°C° 0 mm 2 m/s 666 mmHg 47%
    22:00 +26°C° 0 mm 2 m/s 667 mmHg 51%
    23:00 +26°C° 0 mm 2 m/s 666 mmHg 53%

    23 Ianuarie, Miercuri

    Timp Temperatura Precipitaţii Vânt Presiune Umiditate
    00:00 +25°C° 0 mm 1 m/s 666 mmHg 54%
    01:00 +25°C° 0 mm 1 m/s 666 mmHg 56%
    02:00 +25°C° 0 mm 1 m/s 666 mmHg 57%
    03:00 +24°C° 0 mm 1 m/s 666 mmHg 58%
    04:00 +24°C° 0 mm 1 m/s 666 mmHg 59%
    05:00 +25°C° 0 mm 1 m/s 666 mmHg 58%
    06:00 +25°C° 0 mm 1 m/s 667 mmHg 56%
    07:00 +26°C° 0 mm 2 m/s 667 mmHg 55%
    08:00 +28°C° 0 mm 2 m/s 668 mmHg 45%
    09:00 +31°C° 0 mm 1 m/s 668 mmHg 36%
    10:00 +33°C° 0 mm 1 m/s 669 mmHg 26%
    11:00 +36°C° 0 mm 2 m/s 668 mmHg 23%
    12:00 +37°C° 0 mm 3 m/s 668 mmHg 20%
    13:00 +38°C° 0 mm 4 m/s 667 mmHg 17%
    14:00 +38°C° 0 mm 4 m/s 667 mmHg 17%
    15:00 +38°C° 0 mm 4 m/s 666 mmHg 18%
    16:00 +38°C° 0 mm 4 m/s 666 mmHg 19%
    17:00 +36°C° 0 mm 3 m/s 665 mmHg 22%
    18:00 +34°C° 0 mm 3 m/s 665 mmHg 26%
    19:00 +31°C° 0 mm 2 m/s 665 mmHg 30%
    20:00 +30°C° 0 mm 2 m/s 665 mmHg 31%
    21:00 +29°C° 0 mm 2 m/s 665 mmHg 31%
    22:00 +28°C° 0 mm 2 m/s 666 mmHg 32%
    23:00 +28°C° 0 mm 2 m/s 665 mmHg 35%
    Arată mai mult